This is the latest recevied weather packets stored in our database for station/object WMKK. If no packets are shown the sender has not sent any weather packets the latest 10 day(s).
| Time | Temp. | Humidity | Pressure | Rain* | Wind** | Luminosity | Snow |
|---|---|---|---|---|---|---|---|
| 1777480790 | 26.67° C | 94% | 1009 hPa | - | - | - | - |
| 1777479011 | 26.67° C | 94% | 1009 hPa | - | - | - | - |
| 1777477190 | 27.78° C | 83% | 1009 hPa | - | - | - | - |
| 1777475416 | 26.67° C | 94% | 1009 hPa | - | - | - | - |
| 1777473595 | 26.67° C | 88% | 1009 hPa | - | - | - | - |
| 1777472386 | 27.78° C | 83% | 1009 hPa | - | - | - | - |
| 1777471807 | 28.89° C | 74% | 1009 hPa | - | - | - | - |
| 1777469991 | 28.89° C | 74% | 1009 hPa | - | - | - | - |
| 1777468207 | 28.89° C | 74% | 1008 hPa | - | - | - | - |
| 1777466391 | 27.78° C | 74% | 1007 hPa | - | - | - | - |
| 1777464610 | 28.89° C | 70% | 1007 hPa | - | - | - | - |
| 1777462789 | 28.89° C | 70% | 1007 hPa | - | - | - | - |
| 1777461007 | 28.89° C | 70% | 1006 hPa | - | - | - | - |
| 1777459189 | 28.89° C | 70% | 1006 hPa | - | - | - | - |
| 1777457988 | 27.78° C | 74% | 1005 hPa | - | - | - | - |
| 1777457416 | 27.78° C | 74% | 1005 hPa | - | - | - | - |
| 1777455598 | 26.67° C | 83% | 1006 hPa | - | - | - | - |
| 1777453807 | 27.78° C | 74% | 1006 hPa | - | - | - | - |
| 1777451991 | 28.89° C | 74% | 1006 hPa | - | - | - | - |
| 1777450210 | 30.56° C | 74% | 1006 hPa | - | - | - | - |
| 1777448392 | 30° C | 74% | 1006 hPa | - | - | - | - |
| 1777447185 | 30° C | 74% | 1006 hPa | - | - | - | - |
| 1777446607 | 30° C | 74% | 1006 hPa | - | - | - | - |
| 1777444789 | 33.89° C | 63% | 1006 hPa | - | - | - | - |
| 1777444185 | 35° C | 59% | 1007 hPa | - | - | - | - |
* Rain since midnight (hover to see other rain measurements)
** Current wind speed in m/s (hover to see current wind gust speed)